SCP
0 0 0 0 0 0 0 0 0 0 0 0 0 0 0 0 0 0 0 0 0 0 0 0 0 0 0 0 0 0 0 0 0 0 0 0 0 0 0 0 0 0 0 0
0 0 0 0 0 0 0 0 0 0 0 0 0 0 0 0 0 0 0 0 0 0 0 0 0 0 0 0 0 0 0 0 0 0 0 0 0 0 0 0 0 0 0 0
0 0 0 0 0 0 0 0 0 0 0 0 0 0 0 0 0 0 0 0 0 0 0 0 0 0 0 0 0 0 0 0 0 0 0 0 0 0 0 0 0 0 0 0
0 0 0 0 0 0 0 0 0 0 0 0 0 0 0 0 0 0 0 0 0 0 0 0 0 0 0 0 0 0 0 0 0 0 0 0 0 0 0 0 0 0 0 0
0 0 0 0 0 0 0 0 0 0 0 0 0 0 0 0 0 0 0 0 0 0 0 0 0 0 0 0 0 0 0 0 0 0 0 0 0 0 0 0 0 0 0 0
0 0 0 0 0 0 0 0 0 0 0 0 0 0 0 0 0 0 0 0 0 0 0 0 0 0 0 0 0 0 0 0 0 0 0 0 0 0 0 0 0 0 0 0
0 0 0 0 0 0 0 0 0 0 0 0 0 0 0 0 0 0 0 0 0 0 0 0 0 0 0 0 0 0 0 0 0 0 0 0 0 0 0 0 0 0 0 0
0 0 0 0 0 0 0 0 0 0 0 0 0 0 0 0 0 0 0 0 0 0 0 0 0 0 0 0 0 0 0 0 0 0 0 0 0 0 0 0 0 0 0 0
0 0 0 0 0 0 0 0 0 0 0 0 0 0 0 0 0 0 0 0 0 0 0 0 0 0 0 0 0 0 0 0 0 0 0 0 0 0 0 0 0 0 0 0
0 0 0 0 0 0 0 0 0 0 0 0 0 0 0 0 0 0 0 0 0 0 0 0 0 0 0 0 0 0 0 0 0 0 0 0 0 0 0 0 0 0 0 0
0 0 0 0 0 0 0 0 0 0 0 0 0 0 0 0 0 0 0 0 0 0 0 0 0 0 0 0 0 0 0 0 0 0 0 0 0 0 0 0 0 0 0 0
0 0 0 0 0 0 0 0 0 0 0 0 0 0 0 0 0 0 0 0 0 0 0 0 0 0 0 0 0 0 0 0 0 0 0 0 0 0 0 0 0 0 0 0
0 0 0 0 0 0 0 0 0 0 0 0 0 0 0 0 0 0 0 0 0 0 0 0 0 0 0 0 0 0 0 0 0 0 0 0 0 0 0 0 0 0 0 0
0 0 0 0 0 0 0 0 0 0 0 0 0 0 0 0 0 0 0 0 0 0 0 0 0 0 0 0 0 0 0 0 0 0 0 0 0 0 0 0 0 0 0 0
0 0 0 0 0 0 0 0 0 0 0 0 0 0 0 0 0 0 0 0 0 0 0 0 0 0 0 0 0 0 0 0 0 0 0 0 0 0 0 0 0 0 0 0
0 0 0 0 0 0 0 0 0 0 0 0 0 0 0 0 0 0 0 0 0 0 0 0 0 0 0 0 0 0 0 0 0 0 0 0 0 0 0 0 0 0 0 0
-0 0 0 0 0 0 0 0 0 0 0 0 0 0 0 0 0 0 0 0 0 0 0 0 0 0 0 0 0 0 0 0 0 0 0 0 0 0 0 0 0 0 0 0
-0 0 0 0 0 0 0 0 0 0 0 0 0 0 0 0 0 0 0 0 0 0 0 0 0 0 0 0 0 0 0 0 0 0 0 0 0 0 0 0 0 0 0 0
-0 -0 -0 0 0 0 0 0 0 0 0 0 0 0 0 0 0 0 0 0 0 0 0 0 0 0 0 0 0 0 0 0 0 0 0 0 0 0 0 0 0 0 0 0
-0 -0 -0 -0 -0 -0 -0 0 0 0 0 0 0 0 0 -0 -0 0 0 0 0 0 0 0 0 0 0 0 0 0 0 0 0 0 0 0 0 0 0 0 0 0 0 0
-0 -0 -0 -0 -0 -0 -0 0 0 0 0 0 0 0 0 0 0 0 0 0 0 0 0 0 0 0 0 0 0 0 0 0 0 0 0 0 0 0 0 0 0 0 0 0
-0 -0 -0 -0 -0 -0 -0 0 0 0 0 0 0 0 0 0 0 0 0 0 0 0 0 0 0 0 0 0 0 0 0 0 0 0 0 0 0 0 0 0 0 0 0 0
0 0 0 0 0 0 -0 0 0 0 0 0 0 0 0 0 0 0 0 0 0 0 0 0 0 0 0 0 0 0 0 0 0 0 0 0 0 0 0 0 0 0 0 0
0 0 0 0 0 0 0 0 0 0 0 0 0 0 0 0 0 0 0 0 0 0 0 0 0 0 0 0 0 0 0 0 0 0 0 0 0 0 0 0 0 0 0 0
0 0 0 0 0 0 0 0 0 0 0 0 0 0 0 0 0 0 0 0 0 0 0 0 0 0 0 0 0 0 0 0 0 0 0 0 0 0 0 0 0 0 0 0
0 0 0 0 0 0 0 0 0 0 0 0 0 0 0 0 0 0 0 0 0 0 0 0 0 0 0 0 0 0 0 0 0 0 0 0 0 0 0 0 0 0 0 0
0 0 0 0 0 0 0 0 0 0 0 0 0 0 0 0 0 0 0 0 0 0 0 0 0 0 0 0 0 0 0 0 0 0 0 0 0 0 0 0 0 0 0 0
Wind_Speed
4 3 2 4 5 5 7 7 8 8 8 10 6 5 4 4 3 4 4 5 4 3 3 3 3 4 4 4 3 3 3 3 3 3 2 2 2 2 2 2 2 2 2 2
2 2 3 5 7 7 8 7 8 8 11 8 4 3 3 4 3 4 4 5 5 3 3 3 4 4 4 4 4 2 2 2 3 3 3 2 2 2 1 2 2 2 2 2
3 2 2 7 7 7 6 6 6 9 10 4 3 4 4 4 4 4 5 5 5 3 3 3 3 3 4 4 3 2 2 2 2 3 3 3 2 2 2 2 2 1 1 1
0 2 5 6 1 5 5 6 6 6 5 4 5 4 4 3 3 4 4 4 4 3 3 3 3 3 3 3 2 2 2 2 2 3 3 3 2 2 2 2 1 1 1 1
2 2 8 6 2 2 3 5 4 6 6 4 2 2 3 2 2 3 4 4 4 3 3 3 3 3 2 3 2 2 2 2 2 2 2 3 3 2 2 1 1 1 1 1
3 3 6 5 1 1 2 5 3 4 5 3 0 1 4 3 2 3 3 3 3 3 2 2 3 2 2 2 3 2 2 2 2 2 2 2 2 2 1 1 1 1 2 1
3 4 8 5 1 2 3 5 2 3 4 3 4 5 4 2 2 2 3 3 2 2 2 2 2 2 2 2 3 3 3 2 2 2 2 2 2 2 2 2 2 2 2 2
4 4 9 1 3 4 5 2 2 2 3 3 3 3 2 2 2 2 3 3 2 2 2 3 2 1 2 2 3 3 2 2 2 2 2 2 2 2 2 2 2 2 2 2
7 7 3 2 4 3 2 3 3 3 3 2 2 3 2 2 1 2 2 2 2 1 2 3 3 2 2 3 3 3 3 3 3 3 2 2 2 2 2 1 1 1 1 2
5 6 4 4 3 3 3 4 4 3 3 3 3 3 2 2 1 1 2 2 2 2 2 3 3 3 2 3 3 3 3 3 3 2 3 3 2 1 1 1 1 1 1 2
6 6 5 4 3 4 4 3 3 3 2 3 3 2 2 2 2 1 1 1 1 1 2 3 3 3 3 3 2 2 2 3 3 3 2 2 2 2 1 1 1 2 1 1
6 4 4 5 4 3 3 3 3 3 2 2 2 2 2 2 1 1 1 1 1 2 2 3 3 3 4 3 2 2 2 2 2 2 2 2 2 2 4 4 5 5 4 3
5 3 4 5 3 2 2 2 2 2 2 2 1 1 1 1 1 1 1 1 1 2 2 2 3 3 4 3 2 2 2 2 2 2 2 2 2 2 3 4 6 6 6 6
3 2 3 3 3 3 2 2 1 1 1 1 1 0 0 0 0 1 1 2 2 2 2 2 2 3 4 3 2 2 2 2 2 2 2 2 2 2 2 2 3 3 5 6
3 3 4 4 3 2 1 1 1 1 1 1 0 0 0 0 1 2 2 2 1 1 2 2 2 3 3 2 2 2 2 2 2 1 1 1 2 2 2 2 2 3 3 4
4 2 2 2 2 1 1 1 1 1 1 1 0 1 0 0 1 1 1 1 1 2 2 2 3 3 3 2 2 2 1 2 2 2 1 1 1 1 2 2 2 2 3 3
1 2 2 2 3 2 2 2 2 2 1 1 1 1 1 1 1 2 2 2 2 2 2 2 3 3 2 2 1 1 1 2 3 2 1 1 1 1 1 2 2 2 3 3
4 4 4 4 4 3 2 2 1 1 1 1 0 0 0 0 1 2 2 2 2 3 3 2 2 2 2 1 1 1 1 1 1 1 2 2 2 1 1 2 2 3 3 3
2 2 2 2 2 2 2 2 1 1 1 0 1 1 1 1 1 2 1 1 1 3 3 3 3 2 2 2 1 1 1 1 1 1 1 2 2 2 2 2 2 2 2 2
1 1 1 0 0 1 1 1 1 1 1 1 0 0 1 1 1 1 1 1 2 3 3 3 2 2 2 2 2 1 1 1 1 1 1 1 1 2 2 2 2 2 2 2
1 1 0 0 1 1 1 1 1 1 1 1 1 1 1 2 1 0 0 2 3 3 3 3 2 1 2 2 2 1 1 1 1 1 1 1 2 2 2 2 2 2 2 2
1 1 1 0 0 1 1 0 1 1 0 0 0 0 0 1 1 1 1 2 3 3 2 2 2 2 2 3 1 1 1 1 1 1 1 1 1 2 2 2 2 2 2 2
1 1 1 1 1 1 1 0 0 1 1 1 1 1 1 2 1 1 2 2 2 3 2 1 2 3 3 2 1 1 1 1 1 1 1 2 2 2 2 3 2 2 2 2
1 0 0 0 1 1 1 1 1 1 1 1 1 2 1 1 1 1 2 3 3 3 2 2 4 4 4 2 1 1 1 1 2 2 2 2 2 2 2 2 2 2 2 3
1 1 1 1 1 1 1 1 1 1 1 1 1 1 1 1 1 2 1 2 3 3 2 3 4 4 3 2 2 2 2 2 2 2 2 2 2 2 2 2 2 3 3 3
1 1 1 2 1 1 1 1 0 0 0 1 1 1 1 1 1 1 1 1 2 2 2 2 2 3 2 2 2 2 2 2 3 2 2 2 3 3 3 3 3 3 3 3
0 0 0 0 0 1 1 1 1 1 1 1 1 1 1 1 1 1 1 1 1 1 1 2 2 2 2 2 2 2 2 2 2 2 2 2 3 2 3 3 3 3 2 3
Wind_Direction
247 258 235 238 242 214 205 213 222 246 249 267 265 262 265 271 288 305 311 313 303 310 316 325 330 333 334 329 334 341 342 336 324 320 324 312 295 286 284 283 279 274 272 277
267 250 249 266 261 239 236 235 238 257 267 268 269 266 272 271 275 285 295 300 304 314 317 316 319 323 327 326 329 340 343 335 332 337 338 331 317 310 308 296 285 277 264 263
265 303 342 278 241 218 219 219 208 234 251 279 287 275 266 271 274 273 287 294 299 304 298 298 304 311 313 314 322 343 342 341 342 341 340 333 322 326 315 300 293 293 274 265
249 42 249 250 206 198 217 242 225 240 262 258 259 271 272 260 248 280 297 300 301 304 305 309 318 324 318 325 339 345 342 340 344 343 336 336 342 342 328 316 314 306 303 300
150 232 275 289 258 180 202 269 233 233 257 270 287 305 294 258 247 261 274 288 291 293 298 311 321 324 334 353 356 356 342 336 331 326 329 338 341 335 331 345 343 323 308 313
155 200 247 264 264 186 122 282 256 217 241 247 146 275 273 272 287 291 300 304 307 317 324 326 324 336 359 353 359 349 332 323 325 329 336 337 335 342 353 355 340 346 351 341
189 229 261 262 253 127 171 260 290 224 226 204 215 233 267 290 306 303 310 313 323 330 331 322 331 2 9 358 350 334 337 341 346 348 342 332 351 357 357 3 12 17 6 351
172 218 256 231 136 183 226 280 282 253 227 224 248 270 281 292 308 321 323 325 332 343 333 333 346 12 2 341 334 342 353 358 354 351 341 352 7 354 359 10 16 10 10 348
198 220 255 189 210 235 234 265 270 255 255 233 242 258 275 281 287 306 310 316 328 341 340 344 349 2 351 333 344 357 4 360 353 352 352 358 360 348 353 359 1 343 349 341
254 265 267 263 259 270 260 258 272 267 256 229 237 254 262 270 293 308 312 314 333 356 352 340 341 351 342 337 351 2 357 347 349 356 357 2 357 355 354 343 332 319 323 328
257 275 298 275 253 267 278 280 284 283 252 227 225 246 245 263 274 283 303 316 330 336 334 328 334 341 341 344 352 355 346 344 346 350 348 353 2 10 351 345 320 322 313 310
239 241 239 268 272 263 259 268 268 275 279 262 228 232 237 256 262 266 296 319 333 331 329 328 335 335 337 340 341 339 338 346 343 342 341 345 352 1 14 10 4 359 352 342
252 270 254 271 284 265 254 268 278 268 247 255 255 224 205 228 249 267 294 310 303 302 306 313 325 328 326 330 338 343 329 328 331 340 343 344 346 349 347 359 6 7 4 358
264 284 284 282 285 296 288 291 307 320 303 255 243 228 170 188 265 271 278 291 300 305 305 307 315 317 320 330 337 336 329 332 333 331 334 334 335 338 338 340 343 347 351 352
269 255 253 273 286 304 318 13 22 341 337 346 16 106 115 201 274 285 295 312 329 324 315 316 318 316 325 335 335 329 330 327 326 325 323 323 328 333 332 330 328 328 334 342
291 284 257 256 271 300 346 359 317 288 296 300 324 322 303 276 293 306 318 352 346 310 308 314 312 314 329 337 337 333 327 332 335 330 328 334 335 333 329 328 330 332 331 330
255 275 277 282 279 282 273 263 244 252 263 266 269 321 21 32 12 341 328 325 305 293 299 303 304 317 328 338 338 328 326 326 337 340 330 326 326 323 320 326 328 326 323 324
238 237 228 222 228 247 265 263 249 250 252 261 286 70 66 321 279 294 308 321 331 329 320 309 308 319 319 322 320 312 313 316 322 320 317 321 320 322 326 323 320 316 321 329
256 242 243 234 220 213 226 244 251 256 272 225 187 238 262 267 276 291 306 327 325 316 314 314 324 340 320 312 323 307 312 315 320 323 319 324 337 336 328 321 319 320 322 326
273 266 256 265 235 196 229 251 248 258 251 188 171 281 309 300 298 297 300 290 278 278 291 307 321 320 315 310 325 314 307 309 313 314 321 327 330 332 330 325 321 315 314 316
286 307 317 288 295 288 233 210 199 232 259 184 186 227 259 288 295 292 337 304 301 306 311 322 334 319 317 317 332 338 330 322 319 319 320 323 326 325 323 323 320 316 312 310
268 261 264 270 296 311 309 247 199 205 210 241 256 243 258 287 297 296 268 259 284 313 332 324 321 316 321 330 343 338 328 321 321 322 318 315 313 311 312 314 310 308 304 299
253 246 245 244 245 276 315 323 225 196 207 223 227 227 231 245 241 245 288 292 292 315 333 316 321 332 345 358 3 346 335 330 325 321 312 305 301 299 300 303 302 301 303 306
238 245 256 218 114 80 340 320 319 285 255 251 241 230 215 239 271 259 264 297 317 328 335 326 339 348 360 15 6 352 341 331 321 314 312 307 302 299 296 295 296 298 299 301
206 197 169 146 160 230 252 303 348 355 359 325 308 297 262 231 242 273 290 303 321 346 348 341 349 355 4 1 352 342 331 321 310 309 307 305 299 296 293 291 289 291 292 292
199 213 220 227 225 224 214 193 217 266 289 310 320 319 319 319 309 323 336 337 337 349 353 345 344 348 354 350 344 339 334 330 334 333 319 307 300 295 292 292 291 288 288 288
182 198 193 286 271 212 201 200 212 239 232 226 274 292 304 330 350 2 0 356 349 345 345 346 348 349 346 341 333 328 326 324 321 317 313 307 301 296 296 296 294 293 293 291